Regional Weather Roundup
Issued by NWS Mt. Holly, NJ

Home | Current Version | Previous Version | Text Only | Print | Product List | Glossary On
Versions: 1 2 3 4 5 6 7 8 9 10 11 12 13 14 15 16 17 18 19 20 21 22 23 24 25 26 27 28 29 30 31 32 33 34 35 36 37 38 39 40 41 42 43 44 45 46 47 48 49 50
581
ASUS41 KPHI 081812
RWRPHI

REGIONAL WEATHER ROUNDUP
NATIONAL WEATHER SERVICE MOUNT HOLLY NJ
100 PM EST MON FEB 08 2016

NOTE:  "FAIR" INDICATES FEW OR NO CLOUDS BELOW 12,000 FEET WITH NO
SIGNIFICANT WEATHER AND/OR OBSTRUCTIONS TO VISIBILITY.

 * = STATION DOES NOT REPORT PRECIPITATION (E.G. RAIN, SNOW, ETC.)
        OR FOG.

NJZ015>026-081900-
SOUTHERN NEW JERSEY

CITY           SKY/WX    TMP DP  RH WIND       PRES   REMARKS
POMONA         CLOUDY    41  28  60 NE18G24   29.68F
6HR MIN TEMP:  37; 6HR MAX TEMP:  42; 6HR PCP:  0.01;

WILDWOOD*      CLOUDY    43  28  56 N10       29.71S
MILLVILLE      CLOUDY   N/A N/A N/A NE7       29.71F
WRIGHTSTOWN    CLOUDY    37  36  93 NE17      29.69F WCI  28
MOUNT HOLLY    CLOUDY    39  28  64 NE12      29.72F WCI  32
TRENTON        CLOUDY    40  26  57 NE17      29.71F WCI  31
6HR MIN TEMP:  37; 6HR MAX TEMP:  41;


$$
NJZ001>014-081900-
NORTHERN NEW JERSEY

CITY           SKY/WX    TMP DP  RH WIND       PRES   REMARKS
SUSSEX         CLOUDY    35  15  44 NE12      29.74F WCI  27
ANDOVER*         N/A     35  16  45 MISG      29.73F
MORRISTOWN     CLOUDY    37  21  52 NE10G18   29.75F WCI  30
NEWARK         CLOUDY    35  23  61 N13       29.75F WCI  26
TETERBORO      CLOUDY    33  22  63 N12       29.75F WCI  24
CALDWELL       CLOUDY    37  20  50 NE10      29.75F WCI  30
SOMERVILLE     CLOUDY    40  23  50 NE8       29.72F WCI  34
ALLAIRE*       CLOUDY    34  21  60 N14G29    29.72F WCI  24
TOMS RIVER*    CLOUDY    37  25  60 NE15      29.73F WCI  28

$$
PAZ043-044-047-054-055-060>062-066>071-081900-
EASTERN PENNSYLVANIA

CITY           SKY/WX    TMP DP  RH WIND       PRES   REMARKS
PHILADELPHIA   CLOUDY    42  26  53 NE14      29.72F
6HR MIN TEMP:  38; 6HR MAX TEMP:  44;

NORTH PHILA    CLOUDY    42  28  57 NE12      29.73F
BLUE BELL*       N/A     37  28  70 NE3       29.70F
DOYLESTOWN     CLOUDY    39  25  57 VRB3      29.70F
QUAKERTOWN*    CLOUDY    39  27  60 NE3       29.71F
POTTSTOWN      CLOUDY    39  26  59 N6        29.72F WCI  35
LANCASTER      CLOUDY    40  28  62 E7        29.71F
COATESVILLE    CLOUDY    39  28  65 NE5G16    29.70F
READING        CLOUDY    40  25  55 NE8       29.70F WCI  34
6HR MIN TEMP:  33; 6HR MAX TEMP:  41;

ALLENTOWN      CLOUDY    42  25  50 E10       29.71F
6HR MIN TEMP:  35; 6HR MAX TEMP:  43;

MOUNT POCONO   CLOUDY    35  21  56 E9        29.64F WCI  28
6HR MIN TEMP:  29; 6HR MAX TEMP:  35;

HAZLETON       CLOUDY    36  27  69 E5        29.67F WCI  32
LEHIGHTON      FAIR      41  27  56 E5        29.71F
WILKES BARRE   CLOUDY    38  22  52 E8        29.68F WCI  32

$$
DEZALL-MDZ008-012-015-019-020-081900-
DELAWARE AND EASTERN MARYLAND

CITY           SKY/WX    TMP DP  RH WIND       PRES   REMARKS
WILMINGTON     CLOUDY    43  28  55 NE7       29.72F
6HR MIN TEMP:  37; 6HR MAX TEMP:  44;

DOVER          PTSUNNY   43  32  65 N7        29.70F
GEORGETOWN     CLOUDY    42  31  64 E10       29.72F
6HR MIN TEMP:  39; 6HR MAX TEMP:  43;

EASTON         CLOUDY    43  30  61 E12       29.76F
ABERDEEN       PTSUNNY   45  27  49 NE14      29.73F
PATUXENT       PTSUNNY   44  29  55 E7        29.72F
OCEAN CITY     CLOUDY    42  32  67 NE15G23   29.72F
WALLOPS ISLAND CLOUDY    43  33  68 E12       29.74F
CAMBRIDGE      CLOUDY    43  32  65 CALM      29.72F
SALISBURY      CLOUDY    43  33  68 CALM      29.72F

$$
PAZ001-021-NYZ056-072-MDZ011-DCZ001-081900-
OTHER NEARBY LOCATIONS

CITY           SKY/WX    TMP DP  RH WIND       PRES   REMARKS
HARRISBURG     PTSUNNY   40  27  59 SE7       29.70F
STATE COLLEGE  PTSUNNY   39  21  48 SE5       29.65F
WILLIAMSPORT   CLOUDY    39  23  52 S5        29.70F
BINGHAMTON     CLOUDY    37  22  54 SE10      29.66F WCI  30
NEW YORK CITY  CLOUDY    32  24  72 NE10G23   29.77F WCI  24
BALTIMORE      MOSUNNY   43  28  55 NE8       29.72F
WASHINGTON DC  PTSUNNY   45  29  53 VRB3      29.72F

$$




USA.gov is the U.S. government's official web portal to all federal, state and local government web resources and services.